Garden City, KS

2:15 PM CDT on April 30, 2017 (GMT -0500)
Garden City Regional

Weather History for KGCK - September, 2013

Change the Weather History Date:

Sunday, September 29, 2013

  Actual Average Record
Temperature  
Mean Temperature 60 °F 62 °F  
Max Temperature 77 °F 76 °F 98 °F (2010)
Min Temperature 43 °F 48 °F 0 °F (2011)
Degree Days  
Heating Degree Days 5 5  
Month to date heating degree days 18 63  
Since 1 July heating degree days 18 67  
Cooling Degree Days 0 2  
Month to date cooling degree days 230 161  
Year to date cooling degree days 1572 1277  
Growing Degree Days 10 (Base 50)    
Moisture  
Dew Point 41 °F    
Average Humidity 57    
Maximum Humidity 89    
Minimum Humidity 24    
Precipitation  
Precipitation 0.00 in 0.04 in 0.74 in (1985)
Month to date precipitation 2.42 1.43  
Year to date precipitation 12.59 17.08  
Sea Level Pressure  
Sea Level Pressure 29.99 in    
Wind  
Wind Speed 11 mph (South)    
Max Wind Speed 22 mph    
Max Gust Speed 32 mph    
Visibility 10 miles    
Events      
T = Trace of Precipitation, MM = Missing Value Source: NWS Daily Summary

Daily Weather History Graph

Daily Weather History Graph

Search for Another Location

Airport or City:

Trip Planner

Search our weather history database for the weather conditions in past years. The results will help you decide how hot, cold, wet, or windy it might be!

Date:

Astronomy

Sep. 29, 2013 Rise Set
Actual Time 7:37 AM CDT 7:28 PM CDT
Civil Twilight 7:10 AM CDT 7:54 PM CDT
Nautical Twilight 6:40 AM CDT 8:25 PM CDT
Astronomical Twilight 6:09 AM CDT 8:55 PM CDT
Moon 2:24 AM CDT (9/29) 4:21 PM CDT (9/29)
Length of Visible Light 12h 43m
Length of Day
11h 51m
Waning Crescent, 27% of the Moon is Illuminated
Sep 29
Waning Crescent
Oct 4
New
Oct 11
First Quarter
Oct 18
Full
Oct 26
Last Quarter

Hourly Weather History & Observations

Time (CDT) Temp. Windchill Dew Point Humidity Pressure Visibility Wind Dir Wind Speed Gust Speed Precip Events Conditions
12:54 AM 46.9 °F - 39.9 °F 77% 30.12 in 10.0 mi South 6.9 mph - N/A   Clear
1:54 AM 46.9 °F - 39.0 °F 74% 30.13 in 10.0 mi South 6.9 mph - N/A   Clear
2:54 AM 46.0 °F 41.9 °F 39.0 °F 76% 30.12 in 10.0 mi South 8.1 mph - N/A   Clear
3:54 AM 46.9 °F - 39.0 °F 74% 30.09 in 10.0 mi SSW 9.2 mph - N/A   Clear
4:54 AM 45.0 °F 41.8 °F 39.0 °F 80% 30.09 in 10.0 mi SSW 5.8 mph - N/A   Clear
5:54 AM 43.0 °F 39.5 °F 39.0 °F 86% 30.09 in 10.0 mi SSW 5.8 mph - N/A   Clear
6:54 AM 43.0 °F 39.5 °F 39.0 °F 86% 30.10 in 10.0 mi SSW 5.8 mph - N/A   Clear
7:54 AM 45.0 °F 40.6 °F 39.0 °F 80% 30.09 in 10.0 mi SSW 8.1 mph - N/A   Clear
8:54 AM 48.9 °F - 41.0 °F 74% 30.08 in 10.0 mi South 6.9 mph - N/A   Clear
9:54 AM 57.0 °F - 43.0 °F 59% 30.07 in 10.0 mi South 10.4 mph - N/A   Clear
10:54 AM 64.0 °F - 42.1 °F 45% 30.05 in 10.0 mi SSW 13.8 mph - N/A   Clear
11:54 AM 70.0 °F - 42.1 °F 36% 30.01 in 10.0 mi South 17.3 mph - N/A   Clear
12:54 PM 72.0 °F - 42.1 °F 34% 29.99 in 10.0 mi South 17.3 mph - N/A   Clear
1:54 PM 75.0 °F - 41.0 °F 29% 29.95 in 10.0 mi South 18.4 mph 25.3 mph N/A   Clear
2:54 PM 75.9 °F - 39.9 °F 27% 29.91 in 10.0 mi South 16.1 mph 32.2 mph N/A   Clear
3:54 PM 77.0 °F - 37.9 °F 24% 29.88 in 10.0 mi South 16.1 mph 25.3 mph N/A   Clear
4:54 PM 77.0 °F - 39.0 °F 25% 29.87 in 10.0 mi South 15.0 mph 25.3 mph N/A   Clear
5:54 PM 75.0 °F - 39.0 °F 27% 29.86 in 10.0 mi South 12.7 mph 24.2 mph N/A   Clear
6:54 PM 72.0 °F - 39.9 °F 31% 29.87 in 10.0 mi South 11.5 mph - N/A   Clear
7:54 PM 64.9 °F - 44.1 °F 47% 29.89 in 10.0 mi SSE 9.2 mph - N/A   Clear
8:54 PM 62.1 °F - 44.1 °F 52% 29.88 in 10.0 mi SSE 13.8 mph - N/A   Clear
9:54 PM 57.0 °F - 44.1 °F 62% 29.88 in 10.0 mi SSE 9.2 mph - N/A   Clear
10:54 PM 57.0 °F - 43.0 °F 59% 29.86 in 10.0 mi SSE 11.5 mph - N/A   Clear
11:54 PM 57.0 °F - 43.0 °F 59% 29.84 in 10.0 mi SSE 10.4 mph - N/A   Clear